This demonstration page uses our WeatherBlox Daily Observations layout. Learn more.

Left ArrowRight Arrow

39.92423, -83.80882

Hourly Observations for July 12, 2019

Temp ( °F °C ) Dew Point ( °F °C ) Humidity (%) Winds ( mph kmh ) Pressure ( in mb ) Visibility ( mi km ) Precip ( " mm )
12:56 am 00:56 Clear 72 22.2 65 18.3 79 79 NW 6 9 29.87 1011 10 16.0934 N/A
1:56 am 01:56 Clear 71 21.7 65 18.3 81 81 NW 9 15 29.86 1011 10 16.0934 N/A
2:56 am 02:56 Clear 69 20.6 64 17.8 84 84 NW 7 11 29.87 1012 10 16.0934 N/A
3:56 am 03:56 Clear 67 19.4 61 16.1 81 81 NW 6 9 29.88 1012 10 16.0934 N/A
4:56 am 04:56 Clear 65 18.3 60 15.6 84 84 NW 7 11 29.89 1012 10 16.0934 N/A
5:56 am 05:56 Clear 64 17.8 60 15.6 87 87 NW 5 7 29.9 1013 10 16.0934 N/A
6:56 am 06:56 Sunny 64 17.8 61 16.1 90 90 WNW 3 6 29.91 1013 10 16.0934 N/A
7:56 am 07:56 Mostly Sunny 66 18.9 62 16.7 87 87 NNW 5 7 29.93 1014 10 16.0934 N/A
8:46 am 08:46 Mostly Cloudy 70 21 64 18 83 83 N 5 7 29.93 1013 10 16.0934 N/A
8:56 am 08:56 Cloudy 69 20.6 64 17.8 84 84 N 6 9 29.94 1014 10 16.0934 N/A
9:29 am 09:29 Partly Cloudy 72 22 66 19 83 83 NW 5 7 29.92 1013 10 16.0934 N/A
9:56 am 09:56 Mostly Sunny 71 21.7 66 18.9 84 84 NW 5 7 29.95 1014 10 16.0934 N/A
10:56 am 10:56 Mostly Cloudy 76 24.4 67 19.4 74 74 NW 7 11 29.95 1014 10 16.0934 N/A
11:32 am 11:32 Partly Cloudy 77 25 66 19 69 69 VRB 5 7 29.92 1013 10 16.0934 N/A
11:41 am 11:41 Mostly Cloudy 77 25 66 19 69 69 NW 6 9 29.93 1014 10 16.0934 N/A
11:49 am 11:49 Partly Cloudy 79 26 64 18 61 61 NW 6 9 29.93 1014 10 16.0934 N/A
11:56 am 11:56 Partly Cloudy 78 25.6 65 18.3 64 64 NW 7 11 29.96 1015 10 16.0934 N/A
12:56 pm 12:56 Mostly Sunny 80 26.7 65 18.3 60 60 W 8 13 29.96 1015 10 16.0934 N/A
1:56 pm 13:56 Partly Cloudy 82 27.8 63 17.2 53 53 VRB 7 11 29.95 1014 10 16.0934 N/A
2:56 pm 14:56 Sunny 83 28.3 64 17.8 53 53 NW 9 15 29.95 1014 10 16.0934 N/A
3:56 pm 15:56 Sunny 83 28.3 63 17.2 51 51 VRB 5 7 29.94 1014 10 16.0934 N/A
4:56 pm 16:56 Sunny 84 28.9 62 16.7 48 48 W 7 11 29.93 1014 10 16.0934 N/A
5:56 pm 17:56 Sunny 83 28.3 60 15.6 46 46 NW 3 6 29.93 1014 10 16.0934 N/A
6:56 pm 18:56 Sunny 82 27.8 59 15 46 46 NW 6 9 29.93 1014 10 16.0934 N/A
7:56 pm 19:56 Sunny 82 27.8 60 15.6 47 47 NW 5 7 29.95 1014 10 16.0934 N/A
8:56 pm 20:56 Sunny 78 25.6 63 17.2 60 60 N N/A 29.95 1014 10 16.0934 N/A
9:56 pm 21:56 Clear 73 22.8 64 17.8 74 74 NW 3 6 29.96 1015 10 16.0934 N/A
10:56 pm 22:56 Clear 69 20.6 63 17.2 81 81 N N/A 29.96 1015 10 16.0934 N/A
11:56 pm 23:56 Clear 67 19.4 63 17.2 87 87 W 3 6 29.97 1015 10 16.0934 N/A

Powered by AerisWeather